Volver al catálogo

STARLINK-34616

ActivoComunicacionesVLEO
NORAD 66320·PAYLOAD·🇺🇸 United States

Lanzado Nov 6, 2025 desde Cape Canaveral Space Force Station

Loading…

Próximos Pases (próximas 24 horas)

TLE

ActualizadoSource: CelesTrak SupGP

Época: Sep 15, 2026, 03:18 UTC

1 66320C 25253B   26258.13798611 -.00005587  00000+0 -20247-3 0  2585
2 66320  43.0014 222.2191 0001122 263.6498  59.2066 15.27566350    13

Sigue STARLINK-34616 en tiempo real con AllMySat

Download on the App Store